K3FEF-13 Weather Reports


Display with metric or nautical units.
time (UTC)temp
F
wind
direction
speed
MPH
gust
MPH
rain 1hr
in
rain 24hr
in
rain mn
in
humidity
%
barometer
mb
20260510070516 50 0.0 0.0 0.00 0.31 0.00 97 1014.1
20260510065536 50 0.0 0.0 0.00 0.31 0.00 97 1014.1
20260510064536 50 0.0 0.0 0.00 0.31 0.00 97 1014.3
20260510063516 50 0.0 0.0 0.00 0.31 0.00 97 1014.5
20260510062516 50 0.0 0.0 0.00 0.32 0.00 97 1014.6
20260510061516 50 0.0 0.0 0.00 0.33 0.00 97 1013.7
20260510060516 50 0.0 0.0 0.00 0.33 0.00 97 1013.7
20260510055516 50 0.0 0.0 0.00 0.34 0.00 97 1014.1
20260510054515 50 0.0 0.0 0.00 0.36 0.00 97 1014.2
20260510053516 50 0.0 0.0 0.00 0.36 0.00 97 1014.0
20260510052516 50 0.0 0.0 0.00 0.36 0.00 97 1014.1
20260510051516 50 0.0 0.0 0.00 0.36 0.00 97 1014.1
20260510050536 50 0.0 0.0 0.00 0.36 0.00 97 1013.7
20260510045516 49 0.0 0.0 0.00 0.36 0.00 97 1013.3
20260510044536 49 0.0 0.0 0.00 0.36 0.00 97 1013.3
20260510043515 49 0.0 0.0 0.00 0.36 0.00 97 1013.2
20260510042515 49 0.0 0.0 0.00 0.36 0.00 97 1013.3
20260510041516 49 0.0 0.0 0.00 0.36 0.00 97 1013.4
20260510040515 49 0.0 0.0 0.00 0.36 0.00 97 1013.5
20260510035516 49 0.0 0.0 0.00 0.36 0.36 97 1013.3
20260510034516 49 0.0 0.0 0.00 0.36 0.36 97 1013.0
20260510033516 48 0.0 0.0 0.00 0.36 0.36 97 1013.0
20260510032516 48 0.0 0.0 0.00 0.36 0.36 96 1012.9
20260510031516 48 0.0 0.0 0.00 0.36 0.36 96 1012.7
20260510030516 48 0.0 0.0 0.00 0.36 0.36 96 1012.7
20260510025516 49 0.0 0.0 0.00 0.36 0.36 96 1012.9
20260510024517 49 0.0 0.0 0.00 0.36 0.36 96 1012.8
20260510023516 49 0.0 0.0 0.00 0.36 0.36 96 1013.0
20260510022517 49 0.0 0.0 0.00 0.36 0.36 96 1012.9
20260510021516 50 0.0 0.0 0.00 0.36 0.36 96 1012.9
20260510020516 50 0.0 0.0 0.00 0.36 0.36 96 1012.9
20260510015516 50 0.0 0.0 0.00 0.36 0.36 96 1012.9
20260510014516 51 0.0 0.0 0.00 0.36 0.36 96 1012.7
20260510013536 51 0.0 0.0 0.00 0.36 0.36 96 1012.8
20260510012516 51 0.0 0.0 0.00 0.36 0.36 96 1012.8
20260510011516 51 0.0 0.0 0.00 0.36 0.36 95 1012.5
20260510010516 51 0.0 0.0 0.00 0.36 0.36 95 1012.7
20260510005516 51 0.0 0.0 0.00 0.36 0.36 95 1012.7
20260510004536 51 0.0 0.0 0.00 0.36 0.36 95 1012.4
20260510003516 51 0.0 0.0 0.00 0.36 0.36 95 1012.5
20260510002516 52 0.0 0.0 0.00 0.36 0.36 94 1012.2
20260510001516 52 0.0 0.0 0.00 0.36 0.36 94 1012.1
20260510000516 52 0.0 0.0 0.00 0.36 0.36 94 1012.0
20260509235516 52 0.0 0.0 0.00 0.36 0.36 94 1011.9
20260509234516 53 0.0 0.0 0.00 0.36 0.36 94 1012.0
20260509233556 53 0.0 0.0 0.00 0.36 0.36 94 1011.8
20260509232516 53 0.0 0.0 0.00 0.36 0.36 93 1011.5
20260509231516 53 0.0 0.0 0.00 0.36 0.36 92 1011.4
20260509230517 54 0.0 0.0 0.00 0.36 0.36 91 1011.6
20260509225536 54 0.0 0.0 0.00 0.36 0.36 91 1011.6
20260509224516 54 0.0 0.0 0.00 0.36 0.36 92 1011.6
20260509223556 54 0.0 0.0 0.00 0.36 0.36 92 1011.6
20260509222536 53 0.0 0.0 0.00 0.36 0.36 92 1011.9
20260509221516 54 0.0 0.0 0.00 0.36 0.36 92 1011.9
20260509220516 54 0.0 0.0 0.00 0.36 0.36 92 1011.9
20260509215516 54 0.0 0.0 0.00 0.36 0.36 93 1012.0
20260509214536 53 0.0 0.0 0.00 0.36 0.36 93 1012.2
20260509213516 53 0.0 0.0 0.00 0.36 0.36 94 1012.1
20260509212516 52 0.0 0.0 0.00 0.36 0.36 95 1011.9
20260509211516 52 0.0 0.0 0.01 0.36 0.36 94 1012.0
20260509210516 51 0.0 0.0 0.02 0.36 0.36 94 1012.0
20260509205516 52 0.0 0.0 0.02 0.36 0.36 94 1012.0
20260509204515 52 0.0 0.0 0.02 0.36 0.36 94 1012.3
20260509203515 52 0.0 0.0 0.02 0.36 0.36 93 1012.3
20260509202515 52 0.0 0.0 0.03 0.36 0.36 93 1012.5
20260509201515 52 0.0 0.0 0.04 0.35 0.35 93 1012.5
20260509200516 52 0.0 0.0 0.05 0.34 0.34 93 1012.6
20260509195515 52 0.0 0.0 0.06 0.34 0.34 94 1012.6
20260509194515 51 0.0 0.0 0.07 0.34 0.34 94 1012.9
20260509193515 51 0.0 0.0 0.09 0.34 0.34 94 1012.9
20260509192516 51 0.0 0.0 0.10 0.33 0.33 94 1013.1
20260509191515 51 0.0 0.0 0.10 0.31 0.31 93 1013.2
20260509190515 51 0.0 0.0 0.10 0.29 0.29 93 1013.3
20260509185515 51 0.0 0.0 0.12 0.28 0.28 93 1013.5
20260509184515 51 0.0 0.0 0.12 0.27 0.27 93 1013.5
20260509183515 52 0.0 0.0 0.11 0.25 0.25 94 1013.6
20260509182515 52 0.0 0.0 0.10 0.23 0.23 93 1013.9
20260509181515 52 0.0 0.0 0.08 0.21 0.21 93 1013.8
20260509180517 52 0.0 0.0 0.07 0.20 0.19 93 1014.0
20260509175517 52 0.0 0.0 0.04 0.18 0.16 93 1013.8
20260509174537 52 0.0 0.0 0.03 0.19 0.15 93 1013.8
20260509173517 52 0.0 0.0 0.02 0.18 0.14 93 1013.7
20260509172517 52 0.0 0.0 0.01 0.17 0.13 93 1013.7
20260509171517 52 0.0 0.0 0.01 0.17 0.13 93 1013.7
20260509170517 52 0.0 0.0 0.00 0.16 0.12 93 1013.6
20260509165517 52 0.0 0.0 0.01 0.16 0.12 93 1013.6
20260509164537 52 0.0 0.0 0.01 0.16 0.12 93 1013.6
20260509163517 51 0.0 0.0 0.01 0.16 0.12 94 1013.7
20260509162517 51 0.0 0.0 0.02 0.16 0.12 93 1013.8
20260509161537 51 0.0 0.0 0.02 0.16 0.12 94 1013.8
20260509160537 51 0.0 0.0 0.03 0.16 0.12 94 1013.5
20260509155517 51 0.0 0.0 0.02 0.15 0.11 94 1013.6
20260509154537 51 0.0 0.0 0.03 0.15 0.11 94 1014.0
20260509153517 51 0.0 0.0 0.03 0.15 0.11 94 1014.1
20260509152517 50 0.0 0.0 0.02 0.14 0.10 94 1014.3
20260509151517 50 0.0 0.0 0.02 0.14 0.10 93 1014.5
20260509150517 49 0.0 0.0 0.02 0.13 0.09 94 1014.3
20260509145517 49 0.0 0.0 0.02 0.13 0.09 94 1014.2
20260509144517 49 0.0 0.0 0.01 0.12 0.08 94 1014.2
20260509143517 49 0.0 0.0 0.01 0.12 0.08 93 1014.3
20260509142517 49 0.0 0.0 0.01 0.12 0.08 93 1014.3
20260509141537 49 0.0 0.0 0.01 0.12 0.08 94 1014.2
20260509140517 48 0.0 0.0 0.00 0.11 0.07 94 1013.9
20260509135517 48 0.0 0.0 0.00 0.11 0.07 94 1014.0
20260509134517 48 0.0 0.0 0.00 0.11 0.07 93 1014.0
20260509133517 48 0.0 0.0 0.00 0.11 0.07 94 1014.1
20260509132537 48 0.0 0.0 0.00 0.11 0.07 93 1014.1
20260509131517 48 0.0 0.0 0.00 0.11 0.07 93 1014.4
20260509130516 48 0.0 0.0 0.00 0.11 0.07 93 1014.4
20260509125516 48 0.0 0.0 0.01 0.11 0.07 93 1014.3
20260509124517 48 0.0 0.0 0.01 0.11 0.07 93 1014.3
20260509123517 48 0.0 0.0 0.01 0.11 0.07 93 1014.3
20260509122537 47 0.0 0.0 0.01 0.11 0.07 94 1014.5
20260509121537 47 0.0 0.0 0.01 0.11 0.07 95 1014.4
20260509120516 47 0.0 0.0 0.01 0.11 0.07 95 1013.9
20260509115517 47 0.0 0.0 0.00 0.10 0.06 95 1013.9
20260509114516 47 0.0 0.0 0.00 0.10 0.06 95 1014.1
20260509113516 46 0.0 0.0 0.00 0.10 0.06 95 1013.8
20260509112516 46 0.0 0.0 0.00 0.10 0.06 95 1013.9
20260509111516 46 0.0 0.0 0.00 0.10 0.06 95 1014.1
20260509110516 46 0.0 0.0 0.00 0.10 0.06 96 1014.5
20260509105516 46 0.0 0.0 0.00 0.10 0.06 96 1014.4
20260509104516 46 0.0 0.0 0.01 0.10 0.06 96 1014.4
20260509103516 46 0.0 0.0 0.01 0.10 0.06 96 1014.2
20260509102516 45 0.0 0.0 0.01 0.10 0.06 96 1014.4
20260509101536 45 0.0 0.0 0.01 0.10 0.06 95 1014.3
20260509100516 45 0.0 0.0 0.01 0.10 0.06 95 1014.2
20260509095516 45 0.0 0.0 0.01 0.10 0.06 95 1014.3
20260509094516 45 0.0 0.0 0.00 0.09 0.05 95 1014.4
20260509093516 45 0.0 0.0 0.00 0.09 0.05 95 1014.5
20260509092516 46 0.0 0.0 0.00 0.09 0.05 95 1014.5
20260509091516 46 0.0 0.0 0.00 0.09 0.05 95 1014.7
20260509090516 46 0.0 0.0 0.00 0.09 0.05 95 1014.6
20260509085516 46 0.0 0.0 0.00 0.09 0.05 95 1014.7
20260509084516 46 0.0 0.0 0.00 0.09 0.05 95 1014.6
20260509083516 46 0.0 0.0 0.00 0.09 0.05 95 1014.9
20260509082516 46 0.0 0.0 0.00 0.09 0.05 95 1015.0
20260509081516 46 0.0 0.0 0.00 0.09 0.05 95 1015.2
20260509080516 46 0.0 0.0 0.00 0.09 0.05 94 1015.1
20260509075516 46 0.0 0.0 0.00 0.09 0.05 95 1014.9
20260509074516 46 0.0 0.0 0.00 0.09 0.05 94 1014.7
20260509073536 46 0.0 0.0 0.00 0.09 0.05 94 1014.8
20260509072556 46 0.0 0.0 0.01 0.09 0.05 94 1014.6
20260509071516 46 0.0 0.0 0.02 0.09 0.05 94 1014.4